Regional Weather Roundup
Issued by NWS

Home | Current Version | Previous Version | Text Only | Print | Product List | Glossary Off
Versions: 1 2 3 4 5 6 7 8 9 10 11 12 13 14 15 16 17 18 19 20 21 22 23 24 25 26 27 28 29 30 31 32 33 34 35 36 37 38 39 40 41 42 43 44 45 46 47 48 49 50

000
ASUS45 KCYS 101810
RWRWY

WYOMING REGIONAL WEATHER ROUNDUP
NATIONAL WEATHER SERVICE CHEYENNE WY
1100 AM MST SUN DEC 10 2017

NOTE:  "FAIR" INDICATES FEW OR NO CLOUDS BELOW 12,000 FEET
WITH NO SIGNIFICANT WEATHER AND/OR OBSTRUCTIONS TO VISIBILITY.

WYZ001-101900-
YELLOWSTONE NATIONAL PARK

CITY           SKY/WX    TMP DP  RH WIND       PRES   REMARKS
LK YELLOWSTONE   N/A     19  19 100 CALM      30.62S
6HR MIN TEMP:   0; 6HR MAX TEMP:  19;

W YELLOWSTONE  NOT AVBL

$$
WYZ002>013-054>058-071-098>099-101900-
NORTHERN WYOMING

CITY           SKY/WX    TMP DP  RH WIND       PRES   REMARKS
JACKSON        CLOUDY    19  15  84 VRB3      30.66S
CODY           FAIR      46  12  25 NW8       30.39F
GREYBULL       FAIR      25  13  60 CALM      30.44F
6HR MIN TEMP:   7; 6HR MAX TEMP:  25;

WORLAND        FAIR      30  20  66 W5        30.43S WCI  25
6HR MIN TEMP:  10; 6HR MAX TEMP:  30;

SHERIDAN       FAIR      50  19  29 CALM      30.30S
6HR MIN TEMP:  21; 6HR MAX TEMP:  50;

BUFFALO        FAIR      56   0  10 S3        30.33S
6HR MIN TEMP:  32; 6HR MAX TEMP:  56;

GILLETTE       FAIR      47  12  24 SW14      30.31F
6HR MIN TEMP:  28; 6HR MAX TEMP:  47;

HULETT         FAIR      43  14  31 SW10      30.30S
NEWCASTLE      FAIR      45  10  24 N7        30.33F

$$
WYZ014>020-022>026-101>103-101900-
CENTRAL WYOMING

CITY           SKY/WX    TMP DP  RH WIND       PRES   REMARKS
BIG PINEY      FAIR      36  10  34 S6        30.53S WCI  31
6HR MIN TEMP:  15; 6HR MAX TEMP:  38;

PINEDALE       FAIR      32   5  32 S3        30.53F
DUBOIS         FAIR      46  -9   9 W26G35    30.47F
LANDER         FAIR      27  15  61 VRB3      30.43F
6HR MIN TEMP:  15; 6HR MAX TEMP:  28;

RIVERTON       FAIR      27  18  69 NE3       30.45F
6HR MIN TEMP:  11; 6HR MAX TEMP:  27;

CASPER         FAIR      36  15  42 SW21G29   30.42S WCI  25
6HR MIN TEMP:  28; 6HR MAX TEMP:  36;

DOUGLAS        FAIR      41  21  44 W8        30.40S
6HR MIN TEMP:  19; 6HR MAX TEMP:  41;


$$
WYZ021-027>030-104>119-101900-
SOUTHERN WYOMING

CITY           SKY/WX    TMP DP  RH WIND       PRES   REMARKS
EVANSTON       FAIR      34   8  33 S8        30.59R WCI  27
6HR MIN TEMP:  18; 6HR MAX TEMP:  35;

FORT BRIDGER   FAIR      45   6  20 W14       30.59S
ROCK SPRINGS   FAIR      37   4  25 W18       30.54S WCI  27
6HR MIN TEMP:  20; 6HR MAX TEMP:  37;

DIXON          FAIR      26  12  56 CALM      30.61F
RAWLINS        FAIR      38  14  37 SW12      30.51F WCI  30
6HR MIN TEMP:  19; 6HR MAX TEMP:  38;

SARATOGA       FAIR      32  14  47 S14       30.54F WCI  22
LARAMIE        FAIR      41  10  28 N7        30.45S
6HR MIN TEMP:  10; 6HR MAX TEMP:  43;

CHEYENNE       FAIR      51  -3  10 W14       30.41F
6HR MIN TEMP:  29; 6HR MAX TEMP:  52;

TORRINGTON     FAIR      53  11  18 W10       30.34F
6HR MIN TEMP:  24; 6HR MAX TEMP:  53;

PINE BLUFFS    FAIR      54   0  11 NW18G24   30.39F

$$



USA.gov is the U.S. government's official web portal to all federal, state and local government web resources and services.